www.pogodaiklimat.ru

Погода и климат >> Архив погоды >> Бразилия >> Мату-Гросу >> Комодоро


ПОГОДА в Комодоро

  • Прогноз погоды в Комодоро
  • Монитор погоды в Комодоро

АРХИВ ПОГОДЫ в Комодоро

Время (UTC), дата Ветер
(напр.,м/с)
 
Видим.   Явления Облачность Т
(С)
Тd
(С)
f
(%)
Тe
(С)
Тes
(С)
Комфортность P
(гПа)
Po
(гПа)
Тmin
(С)
Tmax
(С)
R
(мм)
R24
(мм)
S
(см)
13 11.02 С 1
{3}
н/о н/о +25.1 +22.6 86 +33 +33 очень
душно
1011.9 947.2
14 11.02 С 2
{3}
н/о н/о +26.9 +23.0 79 +36 +36 очень
душно
1011.1 946.8
15 11.02 С 2
{4}
н/о н/о +27.1 +22.2 75 +35 +35 очень
душно
1010.8 946.6
16 11.02 СЗ 2
{5}
н/о н/о +28.1 +21.4 67 +36 +36 очень
душно
1009.8 945.8
17 11.02 СЗ 2
{4}
н/о н/о +30.7 +23.3 65 +41 +41 опасность
перегрева
1007.8 944.5
18 11.02 З 1
{7}
н/о н/о +28.3 +23.1 73 +38 +38 очень
душно
1007.3 943.5 0.4
19 11.02 З 2
{4}
н/о н/о +26.2 +21.6 76 +34 +34 очень
душно
1007.0 942.8
20 11.02 С 2
{5}
н/о н/о +22.5 +20.5 88 +29 +29 очень
душно
1008.1 943.1 8
21 11.02 штиль 0
{4}
н/о н/о +23.2 +21.2 89 +31 +31 очень
душно
1007.7 942.8 0.2
22 11.02 СЗ 1
{2}
н/о н/о +23.7 +21.7 89 +30 +30 очень
душно
1008.3 943.5
23 11.02 Ю 1
{2}
н/о н/о +22.6 +20.5 88 +29 +29 очень
душно
1009.7 944.6
00 12.02 штиль 0
{1}
н/о н/о +22.3 +20.2 88 +29 +29 очень
душно
1011.2 945.9
01 12.02 штиль 0 н/о н/о +21.7 +19.7 88 +27 +27 душно 1012.1 946.6
02 12.02 штиль 0
{1}
н/о н/о +21.4 +19.6 89 +26 +26 душно 1012.3 946.8
03 12.02 штиль 0
{1}
н/о н/о +21.5 +19.7 89 +27 +27 душно 1012.0 946.5
04 12.02 штиль 0
{1}
н/о н/о +21.4 +19.6 89 +26 +26 душно 1011.3 945.8
05 12.02 штиль 0
{1}
н/о н/о +21.2 +19.7 91 +26 +26 душно 1011.5 946.0
06 12.02 штиль 0
{1}
н/о н/о +21.6 +20.0 91 +27 +27 душно 1011.1 945.7
07 12.02 штиль 0
{1}
н/о н/о +21.8 +20.1 90 +27 +27 душно 1011.2 945.8
08 12.02 штиль 0 н/о н/о +21.6 +19.9 90 +27 +27 душно 1011.4 946.0
09 12.02 штиль 0
{1}
н/о н/о +21.4 +19.9 91 +26 +26 душно 1011.6 946.1
10 12.02 штиль 0
{1}
н/о н/о +20.9 +19.2 90 +25 +25 комфорт 1012.1 946.5
11 12.02 штиль 0
{1}
н/о н/о +22.4 +21.0 92 +29 +29 очень
душно
1012.7 947.3 0.2
12 12.02 З 1
{2}
н/о н/о +25.5 +22.2 82 +33 +33 очень
душно
1013.3 948.6
13 12.02 З 1
{3}
н/о н/о +27.0 +21.9 74 +35 +35 очень
душно
1014.0 949.5
14 12.02 З 1
{3}
н/о н/о +27.1 +22.0 74 +35 +35 очень
душно
1014.2 949.7
15 12.02 ЮЗ 2
{3}
н/о н/о +27.7 +22.2 72 +36 +36 очень
душно
1013.9 949.6
16 12.02 З 2
{4}
н/о н/о +29.1 +23.1 70 +39 +39 очень
душно
1012.8 948.8
17 12.02 З 3
{4}
н/о н/о +28.3 +22.5 71 +37 +37 очень
душно
1011.1 947.1
18 12.02 ЮЗ 2
{4}
н/о н/о +29.6 +22.3 65 +39 +39 очень
душно
1009.2 945.6
19 12.02 ЮЗ 2
{4}
н/о н/о +27.4 +21.7 71 +35 +35 очень
душно
1009.1 945.0
20 12.02 З 1
{3}
н/о н/о +25.7 +21.5 78 +33 +33 очень
душно
1009.2 944.8 1
21 12.02 штиль 0
{4}
н/о н/о +22.8 +21.1 90 +30 +30 очень
душно
1010.6 945.5 42
22 12.02 штиль 0
{1}
н/о н/о +23.3 +21.4 89 +31 +31 очень
душно
1011.0 945.9 6
23 12.02 СЗ 1
{1}
н/о н/о +23.3 +21.6 90 +31 +31 очень
душно
1011.9 946.8 2
00 13.02 З 1
{4}
н/о н/о +22.5 +20.8 90 +29 +29 очень
душно
1013.4 948.0
01 13.02 штиль 0
{2}
н/о н/о +22.5 +20.9 91 +29 +29 очень
душно
1014.1 948.7
02 13.02 С 1
{2}
н/о н/о +22.4 +21.0 92 +29 +29 очень
душно
1014.8 949.3
03 13.02 штиль 0
{2}
н/о н/о +22.6 +21.0 91 +30 +30 очень
душно
1014.6 949.2
04 13.02 штиль 0 н/о н/о +22.4 +20.8 91 +29 +29 очень
душно
1014.0 948.6 0.2
05 13.02 штиль 0
{1}
н/о н/о +22.3 +20.8 91 +29 +29 очень
душно
1013.3 947.9
06 13.02 штиль 0
{1}
н/о н/о +22.3 +20.8 91 +29 +29 очень
душно
1012.6 947.2
07 13.02 Ю 1
{2}
н/о н/о +22.6 +21.1 91 +30 +30 очень
душно
1012.1 946.8
08 13.02 ЮВ 1
{2}
н/о н/о +22.6 +21.0 91 +30 +30 очень
душно
1012.0 946.7
09 13.02 штиль 0
{2}
н/о н/о +22.3 +20.8 91 +29 +29 очень
душно
1012.2 946.9
10 13.02 штиль 0
{1}
н/о н/о +22.1 +20.6 91 +28 +28 душно 1011.9 946.5
11 13.02 штиль 0 н/о н/о +22.5 +21.1 92 +30 +30 очень
душно
1012.3 947.0
12 13.02 штиль 0
{1}
н/о н/о +24.3 +22.5 90 +32 +32 очень
душно
1012.8 947.8
13 13.02 СВ 1
{2}
н/о н/о +25.3 +22.4 84 +33 +33 очень
душно
1013.0 948.2
14 13.02 СЗ 1
{2}
н/о н/о +27.6 +23.3 77 +37 +37 очень
душно
1012.3 948.1
15 13.02 СЗ 1
{2}
н/о н/о +27.5 +21.9 72 +36 +36 очень
душно
1011.8 947.6
16 13.02 З 1
{2}
н/о н/о +28.9 +23.1 71 +39 +39 очень
душно
1010.9 947.0
17 13.02 В 1
{3}
н/о н/о +25.8 +21.5 77 +33 +33 очень
душно
1010.5 946.0 0.8
18 13.02 З 2
{4}
н/о н/о +22.4 +20.5 89 +29 +29 очень
душно
1010.6 945.4 25
19 13.02 Ю 1
{3}
н/о н/о +21.6 +19.7 89 +27 +27 душно 1009.8 944.5 0.8
20 13.02 штиль 0
{2}
н/о н/о +21.6 +19.9 90 +27 +27 душно 1009.2 943.9 2
21 13.02 штиль 0
{1}
н/о н/о +21.9 +20.2 90 +28 +28 душно 1008.8 943.6 1
22 13.02 штиль 0
{1}
н/о н/о +22.1 +20.4 90 +28 +28 душно 1009.4 944.2 0.6
23 13.02 штиль 0 н/о н/о +22.0 +20.4 91 +28 +28 душно 1009.8 944.5
00 14.02 штиль 0 н/о н/о +21.8 +20.2 91 +28 +28 душно 1010.9 945.5
01 14.02 штиль 0
{2}
н/о н/о +22.0 +20.5 91 +28 +28 душно 1011.5 946.1
02 14.02 штиль 0
{2}
н/о н/о +21.9 +20.5 92 +28 +28 душно 1012.2 946.8
03 14.02 В 1
{1}
н/о н/о +21.7 +20.4 92 +27 +27 душно 1012.1 946.6
04 14.02 В 1
{2}
н/о н/о +21.8 +20.5 92 +28 +28 душно 1011.9 946.5
05 14.02 В 1
{2}
н/о н/о +21.6 +20.4 93 +27 +27 душно 1011.3 945.9
06 14.02 В 1
{2}
н/о н/о +21.6 +20.3 92 +27 +27 душно 1011.0 945.6
07 14.02 СВ 1
{2}
н/о н/о +21.7 +20.5 93 +27 +27 душно 1010.8 945.4
08 14.02 СВ 1
{2}
н/о н/о +21.7 +20.6 93 +27 +27 душно 1011.0 945.6
09 14.02 СВ 1
{2}
н/о н/о +21.6 +20.4 93 +27 +27 душно 1011.3 945.9
10 14.02 СВ 1
{2}
н/о н/о +21.7 +20.5 93 +27 +27 душно 1011.9 946.4
11 14.02 СВ 1
{2}
н/о н/о +22.1 +20.8 92 +28 +28 душно 1012.3 946.9
12 14.02 СВ 1
{2}
н/о н/о +23.2 +21.4 90 +31 +31 очень
душно
1012.9 947.7
13 14.02 СВ 1
{3}
н/о н/о +23.3 +21.3 89 +31 +31 очень
душно
1013.9 948.7
14 14.02 С 2
{4}
н/о н/о +23.9 +21.3 85 +30 +30 очень
душно
1014.1 949.0
15 14.02 СЗ 3
{6}
н/о н/о +21.3 +19.8 91 +26 +26 душно 1014.9 949.2 0.2
16 14.02 СЗ 1
{5}
н/о н/о +21.5 +20.2 92 +27 +27 душно 1014.7 949.0 3
17 14.02 СЗ 3
{4}
н/о н/о +22.3 +20.5 90 +29 +29 очень
душно
1013.3 947.9 2
18 14.02 СЗ 2
{4}
н/о н/о +22.7 +20.8 89 +30 +30 очень
душно
1012.8 947.5 0.6
19 14.02 СЗ 2
{3}
н/о н/о +22.9 +20.8 88 +30 +30 очень
душно
1011.9 946.7
20 14.02 СЗ 2
{3}
н/о н/о +23.2 +20.5 85 +31 +31 очень
душно
1010.9 945.8
21 14.02 З 2
{4}
н/о н/о +23.9 +20.9 83 +30 +30 очень
душно
1009.9 945.0
22 14.02 З 2
{3}
н/о н/о +23.1 +20.4 85 +30 +30 очень
душно
1010.0 945.0
23 14.02 штиль 0
{2}
н/о н/о +21.4 +19.3 88 +26 +26 душно 1011.3 945.8
00 15.02 штиль 0
{1}
н/о н/о +20.9 +19.1 89 +25 +25 комфорт 1012.3 946.6
01 15.02 штиль 0
{1}
н/о н/о +20.6 +18.9 90 +24 +24 комфорт 1013.2 947.4
02 15.02 штиль 0
{1}
н/о н/о +20.4 +18.7 90 +24 +24 комфорт 1014.0 948.1
03 15.02 штиль 0 н/о н/о +20.0 +18.3 90 +23 +23 комфорт 1014.7 948.7
04 15.02 штиль 0 н/о н/о +19.9 +18.3 90 +23 +23 комфорт 1014.8 948.8
05 15.02 штиль 0 н/о н/о +19.9 +18.4 91 +23 +23 комфорт 1014.3 948.3
06 15.02 штиль 0
{1}
н/о н/о +20.6 +19.1 91 +24 +24 комфорт 1013.4 947.6
07 15.02 штиль 0
{1}
н/о н/о +21.1 +19.7 92 +26 +26 душно 1012.6 947.0
08 15.02 С 1
{1}
н/о н/о +21.1 +19.8 92 +26 +26 душно 1012.4 946.8
09 15.02 штиль 0
{1}
н/о н/о +21.1 +19.6 91 +26 +26 душно 1012.6 947.0
10 15.02 штиль 0
{1}
н/о н/о +20.8 +19.3 91 +25 +25 комфорт 1013.0 947.3
11 15.02 СВ 1
{1}
н/о н/о +22.3 +20.5 90 +29 +29 очень
душно
1013.2 947.8
12 15.02 СВ 1
{2}
н/о н/о +24.7 +21.7 83 +32 +32 очень
душно
1013.1 948.2
13 15.02 СЗ 1
{2}
н/о н/о +25.4 +21.0 77 +32 +32 очень
душно
1013.4 948.6
14 15.02 СЗ 2
{3}
н/о н/о +26.5 +20.8 71 +33 +33 очень
душно
1013.3 948.8
15 15.02 З 2
{4}
н/о н/о +27.1 +21.6 72 +35 +35 очень
душно
1013.1 948.7
16 15.02 З 2
{4}
н/о н/о +27.8 +21.4 68 +35 +35 очень
душно
1011.9 947.7
17 15.02 З 2
{4}
н/о н/о +28.7 +21.5 65 +37 +37 очень
душно
1010.2 946.3
18 15.02 З 2
{4}
н/о н/о +30.1 +21.1 59 +38 +38 очень
душно
1008.7 945.2
19 15.02 З 2
{4}
н/о н/о +28.8 +20.2 60 +35 +35 очень
душно
1008.0 944.3
20 15.02 З 2
{4}
н/о н/о +28.4 +20.4 62 +35 +35 очень
душно
1007.6 943.8
21 15.02 З 3
{4}
н/о н/о +28.1 +20.1 62 +34 +34 очень
душно
1007.5 943.7
22 15.02 СЗ 1
{4}
н/о н/о +25.2 +21.6 80 +32 +32 очень
душно
1009.0 944.5
23 15.02 штиль 0
{2}
н/о н/о +23.7 +20.6 83 +30 +30 очень
душно
1010.2 945.3
00 16.02 Ю 1
{4}
н/о н/о +22.6 +19.8 84 +29 +29 очень
душно
1011.6 946.4
01 16.02 штиль 0
{2}
н/о н/о +22.3 +19.8 86 +28 +28 душно 1012.5 947.1 0.2
02 16.02 СЗ 2
{3}
н/о н/о +21.2 +19.7 91 +26 +26 душно 1013.8 948.1 3
03 16.02 З 1
{3}
н/о н/о +21.5 +20.0 91 +27 +27 душно 1013.5 947.9 2
04 16.02 СЗ 1
{2}
н/о н/о +21.7 +20.5 93 +27 +27 душно 1012.9 947.4 0.2
05 16.02 СЗ 1
{2}
н/о н/о +21.5 +20.2 92 +27 +27 душно 1012.3 946.8
06 16.02 З 1
{2}
н/о н/о +21.3 +19.9 92 +26 +26 душно 1011.9 946.4
07 16.02 СЗ 1
{1}
н/о н/о +21.4 +20.1 92 +27 +27 душно 1011.3 945.8
08 16.02 штиль 0
{1}
н/о н/о +21.5 +20.1 92 +27 +27 душно 1011.1 945.7
09 16.02 З 1
{1}
н/о н/о +21.5 +20.1 92 +27 +27 душно 1011.1 945.7
10 16.02 штиль 0
{1}
н/о н/о +21.3 +19.9 92 +26 +26 душно 1011.5 946.0
11 16.02 СЗ 1
{1}
н/о н/о +21.9 +20.6 92 +28 +28 душно 1012.1 946.7 0.2
12 16.02 З 2
{2}
н/о н/о +23.1 +21.3 90 +31 +31 очень
душно
1012.8 947.6
13 16.02 СЗ 2
{3}
н/о н/о +23.9 +21.7 88 +31 +31 очень
душно
1013.2 948.1
14 16.02 З 2
{3}
н/о н/о +24.7 +21.9 84 +32 +32 очень
душно
1013.0 948.1
15 16.02 З 2
{4}
н/о н/о +26.1 +22.1 79 +34 +34 очень
душно
1012.0 947.5
16 16.02 З 2
{4}
н/о н/о +27.2 +22.3 75 +36 +36 очень
душно
1010.7 946.5
17 16.02 ЮЗ 2
{4}
н/о н/о +26.7 +21.4 73 +34 +34 очень
душно
1009.5 945.3
18 16.02 ЮЗ 2
{4}
н/о н/о +27.1 +21.9 73 +35 +35 очень
душно
1008.2 944.1
19 16.02 ЮЗ 2
{4}
н/о н/о +23.6 +20.7 84 +29 +29 душно 1008.5 943.7 5
20 16.02 СЗ 3
{5}
н/о н/о +22.1 +21.0 93 +29 +29 очень
душно
1008.4 943.3 28
22 16.02 штиль 0
{3}
н/о н/о +21.3 +19.9 92 +26 +26 душно 1009.8 944.4 24
23 16.02 З 1
{2}
н/о н/о +21.5 +20.2 92 +27 +27 душно 1010.2 944.8 23
00 17.02 З 2
{3}
н/о н/о +21.7 +20.5 93 +27 +27 душно 1011.1 945.7 9
01 17.02 З 1
{3}
н/о н/о +21.8 +20.6 93 +28 +28 душно 1011.6 946.2 2
02 17.02 штиль 0
{2}
н/о н/о +22.0 +20.6 92 +28 +28 душно 1012.1 946.7 0.8
03 17.02 штиль 0
{1}
н/о н/о +21.8 +20.5 92 +28 +28 душно 1011.8 946.4
04 17.02 штиль 0
{1}
н/о н/о +21.7 +20.4 92 +27 +27 душно 1011.4 946.0 0.2
05 17.02 С 1
{2}
н/о н/о +21.7 +20.6 93 +27 +27 душно 1011.1 945.7 1
06 17.02 СЗ 1
{2}
н/о н/о +21.8 +20.6 93 +28 +28 душно 1010.8 945.4 0.4
07 17.02 СЗ 2
{3}
н/о н/о +21.5 +20.4 93 +27 +27 душно 1010.5 945.1
08 17.02 СЗ 2
{3}
н/о н/о +21.3 +20.2 93 +26 +26 душно 1010.4 945.0
09 17.02 З 2
{3}
н/о н/о +21.3 +20.2 93 +26 +26 душно 1010.8 945.3
10 17.02 З 2
{3}
н/о н/о +21.4 +20.3 93 +27 +27 душно 1011.0 945.5
11 17.02 З 2
{3}
н/о н/о +21.8 +20.7 93 +28 +28 душно 1011.6 946.2
12 17.02 З 1
{3}
н/о н/о +22.6 +21.4 93 +30 +30 очень
душно
1012.6 947.3
13 17.02 З 2
{3}
н/о н/о +23.0 +21.3 90 +31 +31 очень
душно
1013.2 947.9
14 17.02 З 2
{3}
н/о н/о +24.6 +22.1 86 +32 +32 очень
душно
1013.0 948.1
15 17.02 З 2
{3}
н/о н/о +25.4 +21.9 81 +33 +33 очень
душно
1012.5 947.8
16 17.02 СЗ 1
{4}
н/о н/о +25.7 +22.1 81 +33 +33 очень
душно
1011.9 947.3
17 17.02 ЮЗ 1
{4}
н/о н/о +26.3 +22.9 82 +35 +35 очень
душно
1010.6 946.2 1
18 17.02 СЗ 1
{3}
н/о н/о +26.9 +22.2 75 +35 +35 очень
душно
1009.4 945.2
19 17.02 СЗ 2
{3}
н/о н/о +27.1 +21.7 72 +35 +35 очень
душно
1008.4 944.3
20 17.02 штиль 0
{3}
н/о н/о +25.2 +21.4 79 +32 +32 очень
душно
1008.3 943.8
21 17.02 штиль 0
{1}
н/о н/о +26.2 +22.4 80 +34 +34 очень
душно
1007.5 943.3
22 17.02 СЗ 1
{2}
н/о н/о +23.9 +20.2 80 +30 +30 очень
душно
1008.5 943.7
23 17.02 штиль 0
{2}
н/о н/о +22.1 +19.6 86 +28 +28 душно 1009.4 944.2
00 18.02 штиль 0 н/о н/о +21.7 +19.4 87 +27 +27 душно 1010.6 945.2
01 18.02 штиль 0
{1}
н/о н/о +22.1 +19.8 87 +28 +28 душно 1011.4 946.1
02 18.02 штиль 0
{1}
н/о н/о +22.1 +20.0 88 +28 +28 душно 1012.1 946.7
03 18.02 З 1
{2}
н/о н/о +23.0 +21.2 90 +31 +31 очень
душно
1012.3 947.1
05 18.02 штиль 0
{2}
н/о н/о +21.3 +19.4 89 +26 +26 душно 1012.1 946.5
06 18.02 штиль 0
{1}
н/о н/о +21.3 +19.6 90 +26 +26 душно 1011.6 946.1
07 18.02 штиль 0
{1}
н/о н/о +21.2 +19.7 91 +26 +26 душно 1011.1 945.6
08 18.02 З 1
{2}
н/о н/о +21.5 +20.0 91 +27 +27 душно 1011.3 945.8
09 18.02 З 2
{3}
н/о н/о +21.3 +19.9 92 +26 +26 душно 1011.7 946.2
10 18.02 З 2
{4}
н/о н/о +20.1 +18.7 92 +24 +24 комфорт 1012.9 947.0 1
11 18.02 штиль 0
{4}
н/о н/о +20.9 +19.5 92 +25 +25 комфорт 1012.7 947.0 0.6
12 18.02 штиль 0
{1}
н/о н/о +23.5 +20.9 85 +29 +29 душно 1013.0 947.9

 

Местоположение метеостанции Комодоро (Мату-Гросу, Бразилия): широта -13.72 долгота -59.77 высота над уровнем моря 593 м.

В архиве по умолчанию представлена погода в Комодоро за последнюю неделю. Архивные данные за месяц целиком и за предыдущие месяцы, начиная с января 2011 года, Вы можете получить, выбрав интересующий диапазон дат из раскрывающегося списка и нажав кнопку "Ввод!".


*Определитесь, кто Вы:
робот инопланетянин человек

Внимание! Время в таблицах - всемирное. Для получения местного времени необходимо прибавить поправку, которая равна -3 ч.

Смотрите также архив погоды в соседних городах и на ближайших метеорологических станциях:

Погода в Вилене (Рондония, Бразилия) (118 км)
Погода в Вилене (Рондония, Бразилия) (119 км)
Погода на Ферме Vila Bela da S Trind (Мату-Гросу, Бразилия) (151 км)
Погода в Понтис-и-Ласерде (Мату-Гросу, Бразилия) (176 км)
Погода в Кампу-Нову-ду-Паресисе (Мату-Гросу, Бразилия) (210 км)
Погода в Ново-Мундо (Мату-Гросу, Бразилия) (214 км)
Погода в Салту-ду-Сеу (Мату-Гросу, Бразилия) (236 км)
Погода в Тангара-да-Серре (Мату-Гросу, Бразилия) (273 км)
Погода в Жуине (Мату-Гросу, Бразилия) (282 км)
Погода в Нова-Маринге (Мату-Гросу, Бразилия) (299 км)

Пояснения к столбцам:

Ветер - указаны скорость ветра в м/с - средняя за 10 мин, порывы в срок и между сроками (в фигурных скобках) и направление, откуда дует ветер: С - северный, СВ - северо-восточный, В - восточный, ЮВ - юго-восточный, Ю - южный, ЮЗ - юго-западный, З - западный, СЗ - северо-западный.
Видимость - горизонтальная дальность видимости в метрах или километрах. При видимости от 1 до 10 км при отсутствии осадков обычно наблюдается дымка, при ухудшении видимости до 1 км и менее - туман. В сухую погоду видимость может ухудшаться дымом, пылью или мглою.
Явления - указаны атмосферные явления, наблюдавшиеся в срок или в последний час перед сроком; фигурными скобками обозначены явления, наблюдавшиеся между сроками (за 1-3 часа до срока); квадратными скобками обозначены град или гололедные отложения с указанием их диаметра в мм.
Облачность - указаны через наклонную черту общая и нижняя облачность в баллах и высота нижней границы облаков в метрах; квадратными скобками обозначены формы облаков: Ci - перистые, Cs - перисто-слоистые, Cc - перисто-кучевые, Ac - высококучевые, As - высокослоистые, Sc - слоисто-кучевые, Ns - слоисто-дождевые, Cu - кучевые, Cb - кучево-дождевые. Подробнее классификацию облаков см. в Атласе облаков (PDF).
T - Температура воздуха - температура, измеренная на высоте 2 м над землей.
Td - Температура точки росы - температура, при понижении до которой содержащийся в воздухе водяной пар достигнет насыщения.
f - Относительная влажность воздуха - влажноcть воздуха, измеренная на высоте 2 м над землей.
Te - Эффективная температура - температура, которую ощущает одетый по сезону человек в тени. Характеристика душности погоды. При расчете учитывается влияние влажности воздуха и скорости ветра на теплоощущения человека.
Tes - Эффективная температура на солнце - температура, которую ощущает человек, с поправкой на солнечный нагрев. Характеристика знойности погоды. Зависит от высоты солнца над горизонтом, облачности и скорости ветра. Ночью, в пасмурную погоду, а также при ветре 12 м/с и более поправка равна нулю.
P - Атмосферное давление - приведенное к уровню моря атмосферное давление.
Po - Атмосферное давление - измеренное на уровне метеостанции атмосферное давление.
Tmin - Минимальная температура - минимум температуры воздуха на высоте 2 м над землей.
Tmax - Максимальная температура - максимум температуры воздуха на высоте 2 м над землей.
R - Количество осадков - Количество выпавших осадков за период времени, мм. При наведении курсора мыши на число - период времени, за который выпало указанное количество осадков.
R24 - Количество осадков - Количество выпавших осадков за 24 часа, мм.
S - Снежный покров - Высота снежного покрова, см. При наведении курсора мыши на число - состояние снежного покрова и степень покрытия местности в баллах.